Location: Clanezzo
(45.7500°N, 9.6000°E)
Time: 09:37:25
(UTC+00:00)

STARS - Pass Details

Date: 03 July 2022
Orbit: 620 x 637 km, 98.2° (Epoch: 14 August)

Event Time Altitude Azimuth Distance (km) Brightness Sun altitude
Rises 23:16:19 0° 0° (N) 2,932 ? -21.3°
Reaches altitude 10° 23:18:57 10° 345° (NNW) 2,016 ? -21.3°
Maximum altitude 23:22:12 21° 297° (WNW) 1,423 ? -21.3°
Enters shadow 23:24:43 13° 256° (WSW) 1,790 ? -21.4°
